Historical Weather Data

Soule Park Golf Course
1033 East Ojai Ave
Ojai, CA 93023
Date ET
(Inches)
Rain
(Inches)
Temp °F
Humidity
Avg
Wind MPH
Avg
Solar Wm2
Avg
High Ave Low
1/1/18 0.05 0.00 77.2 53.6 37.5 65 1.3 71
1/2/18 0.05 0.00 78.5 57.3 45.6 57 1.4 66
1/3/18 0.05 0.00 76.5 57.6 45.3 47 1.4 56
1/4/18 0.06 0.00 77.0 62.1 53.8 56 1.6 78
1/5/18 0.05 0.00 73.6 59.1 46.1 78 1.8 78
1/6/18 0.05 0.00 72.4 60.0 51.6 78 1.6 74
1/7/18 0.06 0.00 75.3 59.4 46.6 71 1.6 80
1/8/18 0.01 0.55 61.9 58.0 55.5 88 2.1 12
1/9/18 0.02 2.22 59.6 51.9 45.0 93 2.0 37
1/10/18 0.04 0.00 66.7 51.4 40.5 86 1.1 95
1/11/18 0.05 0.00 73.6 53.7 40.0 81 1.6 101
1/12/18 0.06 0.00 80.9 57.4 41.8 71 1.6 107
1/13/18 0.09 0.00 84.5 60.9 44.4 52 2.6 105
1/14/18 0.07 0.00 83.9 60.2 46.3 53 1.8 108
1/15/18 0.06 0.00 75.7 57.3 43.2 63 1.8 98
1/16/18 0.05 0.00 73.1 56.6 45.3 73 1.5 85
1/17/18 0.07 0.00 79.4 58.9 44.6 64 1.4 105
1/18/18 0.07 0.00 79.1 59.6 46.4 63 1.7 109
1/19/18 0.04 0.00 61.1 51.8 43.7 74 2.1 77
1/20/18 0.09 0.00 62.1 49.7 36.8 42 3.4 128
1/21/18 0.06 0.00 63.9 46.3 31.9 52 2.1 117
1/22/18 0.07 0.00 69.4 49.2 32.9 52 2.1 132
1/23/18 0.08 0.00 75.3 53.2 37.1 53 2.0 135
1/24/18 0.08 0.00 75.4 52.8 36.6 50 2.1 130
1/25/18 0.08 0.00 64.8 49.0 35.2 63 2.8 130
1/26/18 0.08 0.00 68.0 49.1 34.2 51 2.0 147
1/27/18 0.07 0.00 75.4 52.5 35.3 50 1.7 135
1/28/18 0.12 0.00 85.7 66.9 46.8 26 3.1 142
1/29/18 0.10 0.00 87.6 64.9 49.8 32 2.2 121
1/30/18 0.07 0.00 80.0 60.6 47.4 43 1.2 94
1/31/18 0.11 0.00 82.9 59.3 41.1 46 1.9 164
2/1/18 0.10 0.00 82.5 60.4 41.2 44 1.7 162
2/2/18 0.10 0.00 86.5 61.8 45.6 44 1.5 160
2/3/18 0.11 0.00 85.4 62.1 43.7 46 2.0 170
2/4/18 0.12 0.00 86.0 63.5 46.7 45 2.0 171
2/5/18 0.11 0.00 82.6 60.0 45.2 56 2.2 175
2/6/18 0.09 0.00 76.8 55.9 40.0 71 2.1 173
2/7/18 0.12 0.00 83.0 60.7 42.5 46 2.0 183
2/8/18 0.13 0.00 86.7 62.4 42.8 40 2.0 191
2/9/18 0.12 0.00 80.9 60.1 44.1 51 2.0 194
2/10/18 0.04 0.00 60.9 51.6 44.3 88 1.7 72
2/11/18 0.12 0.00 74.4 53.8 37.7 63 2.5 201
2/12/18 0.10 0.00 62.2 50.1 37.5 71 2.4 198
2/13/18 0.09 0.00 64.7 51.7 40.9 67 2.9 172
2/14/18 0.09 0.07 67.6 54.3 44.7 76 1.9 169
2/15/18 0.12 0.01 72.6 53.9 38.6 55 2.1 211
2/16/18 0.13 0.00 73.2 53.3 33.8 42 2.1 222
2/17/18 0.14 0.00 74.9 54.8 37.5 44 2.1 224
2/18/18 0.11 0.00 67.4 51.1 35.5 65 2.1 216
2/19/18 0.12 0.00 57.8 47.2 34.7 39 3.3 215